Find Starlink 3978

NORAD ID: 52635 Int'l Des: 2022-052 Owner: SPXS Country: US Constellation: starlink operational
LEOCIRCULAR

現在のビュー

3D地球を読み込み中...

About Starlink 3978

Starlink 3978 (NORAD 52635) is a starlink constellation satellite (v1.5) launched May 14, 2022 by SPXS of US. It operates in LEO, CIRCULAR orbit with a mass of 297.00 kg.

Starlink 3978について

説明を読み込み中...

次回通過

Passes for default location (London). Set your location on the main map for personalized predictions.

高度履歴

Loading altitude history...

軌道要素

1 52635U 22052AP 26195.16668980 -.00002449 00000-0 -67151-4 0 9994
2 52635 53.1587 49.2031 0000988 93.9826 346.2870 15.31712014 5834
Epoch: Jul 14, 2026 • Age: 11 hours

現在のステータス

高度 474.1 km
遠地点 / 近地点 N/A
速度 7.63 km/s
衛星直下点 41.85°N, 25.4°E
打ち上げ日 May 14, 2022
運用期間 4.1 years
タイプ internet

技術仕様

分類 Payload
質量 297.00 kg
乾燥質量 275.00 kg
総質量 297.00 kg
長さ 0.20 m
直径 2.80 m
スパン 9.00 m
形状 Box + pan
製造者 SPXS
バスタイプ Starlink
フェーズステータス In Orbit
所有者/国 SPXS/US

Most Searched